Location: Lecco
(45.8566°N, 9.3977°E)
Time: 08:01:08
(UTC+02:00)

Altair - Pass Details

Date: 14 August 2020
Orbit: 1501 x 1682 km, 47.2° (Epoch: 25 September)

Event Time Altitude Azimuth Distance (km) Brightness Sun altitude
Rises 09:34:45 0° 292° (WNW) 4,688 9.5 32.2°
Reaches altitude 10° 09:38:04 10° 285° (WNW) 3,685 9.1 32.8°
Maximum altitude 09:46:19 39° 222° (SW) 2,127 8.4 34.1°
Drops below altitude 10° 09:54:31 10° 158° (SSE) 3,646 10.1 35.5°
Sets 09:57:47 0° 150° (SSE) 4,633 10.6 36.1°
